Starlink 11427

operational
NORAD ID: 62063 Int'l Des: 2024-217 Owner: SPXS Country: US Constellation: starlink
LEOCIRCULAR

About Starlink 11427

Description loading...

Live Position

Loading 3D Globe...

Upcoming Passes

Altitude History

Altitude vs Time

uPlot chart will show altitude changes over time

Two-Line Element Set

1 62063U 24217G 25350.36364151 .00254203 00000-0 20299-2 0 9997
2 62063 53.1560 122.2148 0001866 117.5554 242.5653 15.69822695 62084
Epoch: Dec 16, 2025 • Age: 12 hours

Current Status

Altitude 359.2 km
Velocity 7.70 km/s
Sub-Earth Point 10.51°N, 86.8°E
Launch Date Nov 24, 2024
Age 1 years
Type internet

Technical Details

Classification Payload
Mass 960.00 kg
Dry Mass 910.00 kg
Total Mass 960.00 kg
Length 0.30 m
Diameter 4.10 m
Span 29.00 m
Shape Box + pan
Manufacturer SPXS
Bus Type Starlink V2MD
Phase Status In Orbit
Owner/State SPXS/US

Large Constellations

Loading constellations...